Weather History for PAFA - February, 2014

Change the Weather History Date:

Monday, February 17, 2014

  Actual Average Record
Temperature  
Mean Temperature -15 °F 0 °F  
Max Temperature -2 °F 11 °F 37 °F (1941)
Min Temperature -29 °F -12 °F -49 °F (1965)
Degree Days  
Heating Degree Days 80 65  
Month to date heating degree days 1201 1163  
Since 1 July heating degree days 8656 9695  
Cooling Degree Days 0 0  
Month to date cooling degree days 0 0  
Year to date cooling degree days 0 0  
Moisture  
Dew Point -22 °F    
Average Humidity 69    
Maximum Humidity 78    
Minimum Humidity 55    
Precipitation  
Precipitation 0.00 in 0.02 in 0.20 in (1918)
Month to date precipitation 0.40 0.27  
Year to date precipitation 0.62 0.85  
Snow  
Snow 0.00 in 0.30 in 3.00 in (1996)
Month to date snowfall 7.1 5.1  
Since 1 July snowfall 42.9 53.3  
Snow Depth 21.00 in    
Sea Level Pressure  
Sea Level Pressure 29.35 in    
Wind  
Wind Speed 1 mph (ESE)    
Max Wind Speed 5 mph    
Max Gust Speed -    
Visibility 10 miles    
Events      
T = Trace of Precipitation, MM = Missing Value Source: NWS Daily Summary

Daily Weather History Graph

Daily Weather History Graph

Search for Another Location

Airport or City:

Trip Planner

Search our weather history database for the weather conditions in past years. The results will help you decide how hot, cold, wet, or windy it might be!

Date:

Astronomy

Feb. 17, 2014 Rise Set
Actual Time 8:42 AM AKST 5:29 PM AKST
Civil Twilight 7:50 AM AKST 6:21 PM AKST
Nautical Twilight 6:53 AM AKST 7:19 PM AKST
Astronomical Twilight 5:56 AM AKST 8:15 PM AKST
Moon 9:58 PM AKST (2/17) 8:34 AM AKST (2/17)
Length of Visible Light 10h 31m
Length of Day
8h 47m
Waning Gibbous, 92% of the Moon is Illuminated
Feb 17
Waning Gibbous
Feb 22
Last Quarter
Feb 28
New
Mar 8
First Quarter
Mar 16
Full

Hourly Weather History & Observations

Time (AKST) Temp. Windchill Dew Point Humidity Pressure Visibility Wind Dir Wind Speed Gust Speed Precip Events Conditions
12:53 AM -18.9 °F - -25.1 °F 74% 29.28 in 10.0 mi Calm Calm - N/A   Scattered Clouds
1:53 AM -20.0 °F - -26.0 °F 74% 29.30 in 10.0 mi Calm Calm - N/A   Scattered Clouds
3:53 AM -18.0 °F -30.9 °F -25.1 °F 70% 29.30 in 10.0 mi East 4.6 mph - N/A   Scattered Clouds
4:53 AM -20.9 °F -34.3 °F -27.9 °F 70% 29.30 in 10.0 mi East 4.6 mph - N/A   Scattered Clouds
5:53 AM -22.0 °F - -29.0 °F 70% 29.29 in 10.0 mi Calm Calm - N/A   Scattered Clouds
6:53 AM -24.0 °F - -32.1 °F 66% 29.31 in 10.0 mi Calm Calm - N/A   Scattered Clouds
7:53 AM -25.1 °F -39.1 °F -33.0 °F 66% 29.31 in 10.0 mi South 4.6 mph - N/A   Partly Cloudy
8:53 AM -27.9 °F -39.8 °F -34.1 °F 73% 29.32 in 10.0 mi ENE 3.5 mph - N/A   Partly Cloudy
9:53 AM -23.1 °F - -29.9 °F 70% 29.32 in 10.0 mi Calm Calm - N/A   Partly Cloudy
10:53 AM -20.0 °F - -25.1 °F 78% 29.33 in 10.0 mi Calm Calm - N/A   Partly Cloudy
11:53 AM -14.1 °F - -20.0 °F 75% 29.35 in 10.0 mi Calm Calm - N/A   Partly Cloudy
12:53 PM -11.9 °F - -18.0 °F 74% 29.33 in 10.0 mi Calm Calm - N/A   Partly Cloudy
1:53 PM -6.0 °F - -14.1 °F 68% 29.34 in 10.0 mi Calm Calm - N/A   Partly Cloudy
2:53 PM -4.0 °F - -11.9 °F 69% 29.35 in 10.0 mi Calm Calm - N/A   Mostly Cloudy
3:53 PM -2.9 °F -11.2 °F -11.0 °F 68% 29.35 in 10.0 mi SE 3.5 mph - N/A   Mostly Cloudy
4:53 PM -6.0 °F -14.7 °F -14.1 °F 68% 29.37 in 10.0 mi SSE 3.5 mph - N/A   Mostly Cloudy
5:53 PM -11.9 °F - -18.0 °F 74% 29.38 in 10.0 mi Calm Calm - N/A   Mostly Cloudy
6:53 PM -13.0 °F - -18.9 °F 75% 29.40 in 10.0 mi Calm Calm - N/A   Mostly Cloudy
7:53 PM -13.0 °F - -20.0 °F 71% 29.41 in 10.0 mi Calm Calm - N/A   Scattered Clouds
8:53 PM -11.9 °F -21.5 °F -18.9 °F 71% 29.41 in 10.0 mi North 3.5 mph - N/A   Mostly Cloudy
9:53 PM -9.0 °F -20.4 °F -16.1 °F 71% 29.42 in 10.0 mi SSW 4.6 mph - N/A   Mostly Cloudy
10:53 PM -7.1 °F - -14.1 °F 72% 29.43 in 10.0 mi Calm Calm - N/A   Overcast
11:53 PM -5.1 °F - -11.9 °F 72% 29.45 in 10.0 mi Calm Calm - N/A   Overcast